Simultaneous Nadir Overpasses (SNOs) Predictions

Prediction of SNOs between AQUA and NPP Satellite Orbit:

Table of predicted SNOs for the next 14.0 days since TLE Epoch: 6/1/2024
Index Date (AQUA) Time (AQUA) Lat,Lon (AQUA) SZA (AQUA ) Date (NPP) Time (NPP) Lat,Lon (NPP) SZA (NPP ) Distance(km) Time Diff (sec)
1 06/03/2024 14:21:24 81.25,-111.94 65.75 06/03/2024 14:21:02 81.24,-111.84 65.75 1.75 22
2 06/03/2024 15:10:46 -81.25, 55.77 114.26 06/03/2024 15:11:46 -81.25, 55.94 114.33 2.98 60
3 06/06/2024 02:25:10 -81.24,-112.97 114.49 06/06/2024 02:24:09 -81.24,-112.84 114.48 2.36 61
4 06/06/2024 03:14:31 81.25, 54.98 65.47 06/06/2024 03:14:52 81.25, 55.07 65.44 1.52 21
5 06/08/2024 15:18:16 -81.25, 53.99 114.74 06/08/2024 15:17:59 -81.25, 54.04 114.74 0.86 17
6 06/08/2024 16:07:37 81.26,-138.09 65.23 06/08/2024 16:08:42 81.26,-138.07 65.18 0.67 65
7 06/11/2024 03:22:00 81.23, 52.77 65.14 06/11/2024 03:21:06 81.23, 52.66 65.19 1.93 54
8 06/11/2024 04:11:21 -81.26,-139.05 114.94 06/11/2024 04:11:49 -81.25,-139.14 114.95 1.75 28
9 06/13/2024 16:15:04 81.24,-140.29 64.98 06/13/2024 16:14:55 81.25,-140.19 64.98 1.94 9



Historial Predications of SNOs between AQUA and NPP
